Weather History for KPQN - May, 2014

Change the Weather History Date:

Saturday, May 10, 2014

  Actual Average Record
Temperature  
Mean Temperature 60 °F -  
Max Temperature 75 °F 63 °F 84 °F (2007)
Min Temperature 44 °F 42 °F 30 °F (2002)
Degree Days  
Heating Degree Days 6    
Growing Degree Days 10 (Base 50)    
Moisture  
Dew Point 41 °F    
Average Humidity 54    
Maximum Humidity 76    
Minimum Humidity 29    
Precipitation  
Precipitation 0.00 in - - ()
Sea Level Pressure  
Sea Level Pressure 29.75 in    
Wind  
Wind Speed 9 mph (SSE)    
Max Wind Speed 23 mph    
Max Gust Speed 31 mph    
Visibility 10 miles    
Events Rain , Thunderstorm    
Averages and records for this station are not official NWS values.
T = Trace of Precipitation, MM = Missing Value Source: NWS Daily Summary

Daily Weather History Graph

Daily Weather History Graph

Search for Another Location

Airport or City:

Trip Planner

Search our weather history database for the weather conditions in past years. The results will help you decide how hot, cold, wet, or windy it might be!

Date:

Astronomy

May. 10, 2014 Rise Set
Actual Time 6:04 AM CDT 8:39 PM CDT
Civil Twilight 5:32 AM CDT 9:11 PM CDT
Nautical Twilight 4:51 AM CDT 9:53 PM CDT
Astronomical Twilight 4:04 AM CDT 10:40 PM CDT
Moon 4:27 PM CDT (5/10) 3:48 AM CDT (5/10)
Length of Visible Light 15h 39m
Length of Day
14h 34m
Waxing Gibbous, 82% of the Moon is Illuminated
May 10
Waxing Gibbous
May 14
Full
May 21
Last Quarter
May 28
New
Jun 5
First Quarter

Hourly Weather History & Observations

Time (CDT) Temp. Windchill Dew Point Humidity Pressure Visibility Wind Dir Wind Speed Gust Speed Precip Events Conditions
12:13 AM 44.6 °F - 35.6 °F 71% 29.81 in 10.0 mi Calm Calm - N/A   Clear
12:34 AM 46.4 °F 45.2 °F 35.6 °F 66% 29.82 in 10.0 mi ESE 3.5 mph - N/A   Clear
12:53 AM 46.4 °F 44.3 °F 35.6 °F 66% 29.82 in 10.0 mi ESE 4.6 mph - N/A   Clear
1:13 AM 44.6 °F 43.1 °F 35.6 °F 71% 29.82 in 10.0 mi East 3.5 mph - N/A   Clear
1:33 AM 44.6 °F 43.1 °F 35.6 °F 71% 29.82 in 10.0 mi ESE 3.5 mph - N/A   Clear
1:53 AM 44.6 °F 41.4 °F 35.6 °F 71% 29.82 in 10.0 mi ESE 5.8 mph - N/A   Clear
2:13 AM 46.4 °F 43.5 °F 35.6 °F 66% 29.82 in 10.0 mi SE 5.8 mph - N/A   Scattered Clouds
2:33 AM 44.6 °F 40.2 °F 35.6 °F 71% 29.82 in 10.0 mi ESE 8.1 mph - N/A   Mostly Cloudy
2:53 AM 44.6 °F 42.2 °F 35.6 °F 71% 29.81 in 10.0 mi SE 4.6 mph - N/A   Mostly Cloudy
3:13 AM 44.6 °F 41.4 °F 35.6 °F 71% 29.81 in 10.0 mi East 5.8 mph - N/A   Mostly Cloudy
3:33 AM 44.6 °F 41.4 °F 35.6 °F 71% 29.81 in 10.0 mi ESE 5.8 mph - N/A   Scattered Clouds
3:53 AM 44.6 °F 40.2 °F 35.6 °F 71% 29.81 in 10.0 mi ESE 8.1 mph - N/A   Mostly Cloudy
4:14 AM 44.6 °F 40.7 °F 35.6 °F 71% 29.81 in 10.0 mi ESE 6.9 mph - N/A   Mostly Cloudy
4:33 AM 44.6 °F 40.2 °F 37.4 °F 76% 29.81 in 10.0 mi SE 8.1 mph - N/A   Mostly Cloudy
4:53 AM 44.6 °F 40.2 °F 37.4 °F 76% 29.80 in 10.0 mi ESE 8.1 mph - N/A   Mostly Cloudy
5:13 AM 44.6 °F 40.2 °F 37.4 °F 76% 29.80 in 10.0 mi ESE 8.1 mph - N/A   Scattered Clouds
5:33 AM 44.6 °F 40.2 °F 37.4 °F 76% 29.78 in 10.0 mi ESE 8.1 mph - N/A   Clear
6:13 AM 44.6 °F 39.7 °F 37.4 °F 76% 29.78 in 10.0 mi ESE 9.2 mph - N/A   Clear
6:33 AM 44.6 °F 40.2 °F 37.4 °F 76% 29.78 in 10.0 mi SE 8.1 mph - N/A   Clear
6:53 AM 46.4 °F 41.1 °F 37.4 °F 71% 29.78 in 10.0 mi SE 11.5 mph - N/A   Clear
7:13 AM 48.2 °F - 39.2 °F 71% 29.77 in 10.0 mi ESE 9.2 mph - N/A   Clear
7:33 AM 48.2 °F - 39.2 °F 71% 29.77 in 10.0 mi SE 10.4 mph - N/A   Clear
7:53 AM 51.8 °F - 39.2 °F 62% 29.77 in 10.0 mi SE 11.5 mph - N/A   Clear
8:13 AM 53.6 °F - 39.2 °F 58% 29.76 in 10.0 mi SE 12.7 mph 19.6 mph N/A   Clear
8:33 AM 55.4 °F - 39.2 °F 54% 29.75 in 10.0 mi SE 13.8 mph 18.4 mph N/A   Scattered Clouds
8:52 AM 55.4 °F - 39.2 °F 54% 29.76 in 10.0 mi SE 18.4 mph - N/A   Clear
9:13 AM 57.2 °F - 39.2 °F 51% 29.76 in 10.0 mi SE 18.4 mph 23.0 mph N/A   Clear
9:33 AM 57.2 °F - 41.0 °F 55% 29.75 in 10.0 mi SE 12.7 mph - N/A   Clear
9:53 AM 57.2 °F - 41.0 °F 55% 29.74 in 10.0 mi SE 17.3 mph - N/A   Clear
10:14 AM 60.8 °F - 42.8 °F 52% 29.74 in 10.0 mi SSE 18.4 mph - N/A   Clear
10:33 AM 62.6 °F - 44.6 °F 52% 29.73 in 10.0 mi SSE 16.1 mph - N/A   Clear
10:53 AM 62.6 °F - 44.6 °F 52% 29.73 in 10.0 mi South 17.3 mph 21.9 mph N/A   Scattered Clouds
11:13 AM 64.4 °F - 46.4 °F 52% 29.73 in 10.0 mi South 17.3 mph 21.9 mph N/A   Scattered Clouds
11:33 AM 64.4 °F - 46.4 °F 52% 29.72 in 10.0 mi South 20.7 mph 28.8 mph N/A   Scattered Clouds
11:53 AM 66.2 °F - 46.4 °F 49% 29.72 in 10.0 mi SSW 20.7 mph - N/A   Scattered Clouds
12:13 PM 68.0 °F - 46.4 °F 46% 29.71 in 10.0 mi South 18.4 mph 24.2 mph N/A   Scattered Clouds
12:33 PM 68.0 °F - 46.4 °F 46% 29.70 in 10.0 mi SSW 17.3 mph 23.0 mph N/A   Scattered Clouds
12:53 PM 64.4 °F - 46.4 °F 52% 29.70 in 10.0 mi South 10.4 mph 16.1 mph N/A Rain Light Rain
1:13 PM 64.4 °F - 48.2 °F 56% 29.70 in 10.0 mi SSW 8.1 mph - N/A   Scattered Clouds
1:33 PM 66.2 °F - 50.0 °F 56% 29.69 in 10.0 mi South 9.2 mph - N/A   Scattered Clouds
1:53 PM 71.6 °F - 48.2 °F 43% 29.68 in 10.0 mi South 16.1 mph - N/A   Clear
2:13 PM 71.6 °F - 46.4 °F 41% 29.68 in 10.0 mi South 16.1 mph - N/A   Clear
2:33 PM 73.4 °F - 46.4 °F 38% 29.68 in 10.0 mi South 18.4 mph 24.2 mph N/A   Clear
2:53 PM 73.4 °F - 44.6 °F 36% 29.67 in 10.0 mi South 19.6 mph 25.3 mph N/A   Clear
3:13 PM 73.4 °F - 46.4 °F 38% 29.67 in 10.0 mi South 18.4 mph 29.9 mph N/A   Clear
3:33 PM 73.4 °F - 46.4 °F 38% 29.66 in 10.0 mi South 18.4 mph 27.6 mph N/A   Scattered Clouds
3:53 PM 73.4 °F - 44.6 °F 36% 29.65 in 10.0 mi SSW 17.3 mph 24.2 mph N/A   Scattered Clouds
4:13 PM 73.4 °F - 46.4 °F 38% 29.64 in 10.0 mi SSW 13.8 mph 18.4 mph N/A   Scattered Clouds
4:33 PM 71.6 °F - 44.6 °F 38% 29.64 in 10.0 mi South 12.7 mph - N/A Thunderstorm Thunderstorm
4:53 PM 73.4 °F - 46.4 °F 38% 29.64 in 10.0 mi SSE 10.4 mph - N/A Thunderstorm Scattered Clouds
5:13 PM 71.6 °F - 46.4 °F 41% 29.63 in 10.0 mi SSE 11.5 mph 17.3 mph N/A   Mostly Cloudy
5:33 PM 75.2 °F - 41.0 °F 29% 29.65 in 10.0 mi West 18.4 mph 27.6 mph N/A   Mostly Cloudy
5:53 PM 75.2 °F - 41.0 °F 29% 29.66 in 10.0 mi West 23.0 mph 27.6 mph N/A   Mostly Cloudy
6:13 PM 73.4 °F - 41.0 °F 31% 29.67 in 10.0 mi WNW 21.9 mph 29.9 mph N/A   Scattered Clouds
6:33 PM 71.6 °F - 39.2 °F 31% 29.68 in 10.0 mi WNW 21.9 mph 31.1 mph N/A   Clear
6:53 PM 71.6 °F - 39.2 °F 31% 29.69 in 10.0 mi WNW 19.6 mph 24.2 mph N/A   Clear
7:13 PM 69.8 °F - 39.2 °F 33% 29.71 in 10.0 mi WNW 18.4 mph 23.0 mph N/A   Clear
7:33 PM 69.8 °F - 39.2 °F 33% 29.72 in 10.0 mi WNW 16.1 mph 24.2 mph N/A   Clear
7:53 PM 66.2 °F - 41.0 °F 40% 29.73 in 10.0 mi NW 12.7 mph 23.0 mph N/A   Clear
8:13 PM 66.2 °F - 41.0 °F 40% 29.74 in 10.0 mi NW 10.4 mph - N/A   Clear
8:33 PM 64.4 °F - 42.8 °F 45% 29.75 in 10.0 mi NNW 8.1 mph - N/A   Clear
8:53 PM 62.6 °F - 42.8 °F 48% 29.76 in 10.0 mi NNW 6.9 mph - N/A   Clear
9:13 PM 60.8 °F - 42.8 °F 52% 29.77 in 10.0 mi NNW 5.8 mph - N/A   Clear
9:33 PM 60.8 °F - 42.8 °F 52% 29.78 in 10.0 mi Calm Calm - N/A   Clear
10:13 PM 59.0 °F - 41.0 °F 51% 29.81 in 10.0 mi Calm Calm - N/A   Clear
10:33 PM 57.2 °F - - N/A% 29.81 in 10.0 mi Calm Calm - N/A   Clear
10:53 PM 55.4 °F - 42.8 °F 63% 29.81 in 10.0 mi Calm Calm - N/A   Clear
11:13 PM 55.4 °F - - N/A% 29.81 in 10.0 mi East 3.5 mph - N/A   Clear
11:53 PM 53.6 °F - 42.8 °F 67% 29.82 in 10.0 mi SE 4.6 mph - N/A   Clear